Regional Weather Roundup
Issued by NWS Little Rock, AR

Home | Current Version | Previous Version | Text Only | Print | Product List | Glossary On
Versions: 1 2 3 4 5 6 7 8 9 10 11 12 13 14 15 16 17 18 19 20 21 22 23 24 25 26 27 28 29 30 31
000
ASUS44 KLZK 202305
RWRLZK

WEATHER ROUNDUP FOR ARKANSAS
NATIONAL WEATHER SERVICE LITTLE ROCK AR
500 PM CST FRI JAN 20 2017

NOTE: "FAIR" INDICATES FEW OR NO CLOUDS BELOW 12,000 FEET WITH NO
SIGNIFICANT WEATHER AND/OR OBSTRUCTIONS TO VISIBILITY.

ARZ001-003-010-029-210000-
NORTHWEST ARKANSAS

CITY           SKY/WX    TMP DP  RH WIND       PRES   REMARKS
FAYETTEVILLE   CLEAR     62  41  46 S12       29.54R
FORT SMITH     CLEAR     68  36  30 S15G21    29.55S
HARRISON       CLEAR     64  42  44 S9        29.54S
BENTONVILLE    CLEAR    N/A N/A N/A SW13G22   29.52R
ROGERS         CLEAR     63  40  42 SW17      29.53R
SILOAM SPGS    CLEAR     64  37  36 SW16G23   29.52R
HIGHFILL       CLEAR     64  39  39 S17G23    29.51R
SPRINGDALE     CLEAR     64  39  39 SW20G28   29.54R
$$

ARZ004-005-016-210000-
NORTH CENTRAL ARKANSAS

CITY           SKY/WX    TMP DP  RH WIND       PRES   REMARKS
BATESVILLE     CLEAR     64  50  59 S7        29.61S
FLIPPIN        CLEAR     66  43  42 S7G20     29.52S
MTN HOME       CLEAR     65  44  46 SW9G20    29.53S
$$

ARZ040-041-210000-
WEST CENTRAL ARKANSAS

CITY           SKY/WX    TMP DP  RH WIND       PRES   REMARKS
MENA           CLEAR     68  39  34 SW5G16    29.61S
MOUNT IDA      CLEAR     67  40  37 VRB6      29.59S
$$

ARZ009-017-025-026-028-210000-
NORTHEAST ARKANSAS

CITY           SKY/WX    TMP DP  RH WIND       PRES   REMARKS
JONESBORO      CLOUDY    62  53  72 S12       29.62F
NEWPORT        PTCLDY    62  55  77 S8        29.62S
WALNUT RIDGE   CLEAR     61  54  77 S14       29.61R
BLYTHEVILLE    CLOUDY    63  54  72 S13       29.66S
$$

ARZ022-023-033-042-044-210000-
CENTRAL ARKANSAS

CITY           SKY/WX    TMP DP  RH WIND       PRES   REMARKS
LITTLE ROCK    CLOUDY    66  51  58 S10       29.63R
JACKSONVILLE   PTCLDY    67  54  62 S9        29.62R
SEARCY         PTCLDY    65  54  67 S12       29.63R
HOT SPRINGS    CLEAR     67  47  48 SW8       29.63R
RUSSELLVILLE   CLEAR     67  44  43 S8        29.58R
CLINTON        FAIR      66  50  55 S7        29.59R
$$

ARZ036-210000-
EAST ARKANSAS

CITY           SKY/WX    TMP DP  RH WIND       PRES   REMARKS
WEST MEMPHIS   MOCLDY    63  58  83 S12       29.66R
$$

ARZ050-053-066-070-073-210000-
SOUTHWEST ARKANSAS

CITY           SKY/WX    TMP DP  RH WIND       PRES   REMARKS
ARKADELPHIA    FAIR      66  52  60 S8        29.64S
CAMDEN         CLOUDY    66  45  45 S5        29.66S
TEXARKANA      CLEAR     70  44  39 SW13      29.64S
EL DORADO      CLOUDY    66  51  58 S6        29.67F
DE QUEEN       CLEAR     70  41  34 SW6       29.59F
$$

ARZ056-057-069-210000-
SOUTHEAST ARKANSAS

CITY           SKY/WX    TMP DP  RH WIND       PRES   REMARKS
PINE BLUFF     PTCLDY    67  49  52 S12       29.65S
STUTTGART      CLOUDY    66  50  55 S9        29.65F
MONTICELLO     PTCLDY    70  47  43 SW6       29.67S

$$






USA.gov is the U.S. government's official web portal to all federal, state and local government web resources and services.